Вернуться в каталог

SL-12 R/B(2)

АктивенGEO
NORAD 12447·ROCKET BODY·🇷🇺 Russia

Запущен Oct 5, 1980 с Baikonur Cosmodrome

Loading…

TLE

СвежийSource: Space-Track

Эпоха: Sep 14, 2026, 10:11 UTC

1 12447U 80081F   26257.42449782 -.00000289  00000-0  00000-0 0  9997
2 12447   5.9624 289.5203 0004445  39.1279 136.5511  0.99971074165272

Отслеживайте SL-12 R/B(2) в реальном времени с AllMySat

Download on the App Store